Probability
0 0 0 0 0 0 0 0 0 0 0 0 0 0 0 0 0 0 0 0 0 0 0 0 0 0 0 0 0 0 0 0 0 0 0 0 0 0 0 0 0 0 0
0 0 0 0 0 0 0 0 0 0 0 0 0 0 0 0 0 0 0 0 0 0 0 0 0 0 0 0 0 0 0 0 0 0 0 0 0 0 0 0 0 0 0
0 0 0 0 0 0 0 0 0 0 0 0 0 0 0 0 0 0 0 0 0 0 0 0 0 0 0 0 0 0 0 0 0 0 0 0 0 0 0 0 0 0 0
0 0 0 0 0 0 0 0 0 0 0 0 0 0 0 0 0 0 0 0 0 0 0 0 0 0 0 0 0 0 0 0 0 0 0 0 0 0 0 0 0 0 0
0 0 0 0 0 0 0 0 0 0 0 0 0 0 0 0 0 0 0 0 0 0 0 0 0 0 0 0 0 0 0 0 0 0 0 0 0 0 0 0 0 0 0
0 0 0 0 0 0 0 0 0 0 0 0 0 0 0 0 0 0 0 0 0 0 0 0 0 0 0 0 0 0 0 0 0 0 0 0 0 0 0 0 0 0 0
0 0 0 0 0 0 0 0 0 0 0 0 0 0 0 0 0 0 0 0 0 0 0 0 0 0 0 0 0 0 0 0 0 0 0 0 0 0 0 0 0 0 0
0 0 0 0 0 0 0 0 0 0 0 0 0 0 0 0 0 0 0 0 0 0 0 0 0 0 0 0 0 0 0 0 0 0 0 0 0 0 0 0 0 0 0
0 0 0 0 0 0 0 0 0 0 0 0 0 0 0 0 0 0 0 0 0 0 0 0 0 0 0 0 0 0 0 0 0 0 0 0 0 0 0 0 0 0 0
0 0 0 0 0 0 0 0 0 0 0 0 0 0 0 0 0 0 0 0 0 0 0 0 0 0 0 0 0 0 0 0 0 0 0 0 0 0 0 0 0 0 0
0 0 0 0 0 0 0 0 0 0 0 0 0 0 0 0 0 0 0 0 0 0 0 0 0 0 0 0 0 0 0 0 0 0 0 0 0 0 0 0 0 0 0
0 0 0 0 0 0 0 0 0 0 0 0 0 0 0 0 0 0 0 0 0 0 0 0 0 0 0 0 0 0 0 0 0 0 0 0 0 0 0 0 0 0 0
0 0 0 0 0 0 0 0 0 0 0 0 0 0 0 0 0 0 0 0 0 0 0 0 0 0 0 0 0 0 0 0 0 0 0 0 0 0 0 0 0 0 0
0 0 0 0 0 0 0 0 0 0 0 0 0 0 0 0 0 0 0 0 0 0 0 0 0 0 0 0 0 0 0 0 0 0 0 0 0 0 0 0 0 0 0
0 0 0 0 0 0 0 0 0 0 0 0 0 0 0 0 0 0 0 0 0 0 0 0 0 0 0 0 0 0 0 0 0 0 0 0 0 0 0 0 0 0 0
0 0 0 0 0 0 0 0 0 0 0 0 0 0 0 0 0 0 0 0 0 0 0 0 0 0 0 0 0 0 0 0 0 0 0 0 0 0 0 0 0 0 0
0 0 0 0 0 0 0 0 0 0 0 0 0 0 0 0 0 0 0 0 0 0 0 0 0 0 0 0 0 0 0 0 0 0 0 0 0 0 0 0 0 0 0
0 0 0 0 0 0 0 0 0 0 0 0 0 0 0 0 0 0 0 0 0 0 0 0 0 0 0 0 0 0 0 0 0 0 0 0 0 0 0 0 0 0 0
0 0 0 0 0 0 0 0 0 0 0 0 0 0 0 0 0 0 0 0 0 0 0 0 0 0 0 0 0 0 0 0 0 0 0 0 0 0 0 0 0 0 0
0 0 0 0 0 0 0 0 0 0 0 0 0 0 0 0 0 0 0 0 0 0 0 0 0 0 0 0 0 0 0 0 0 0 0 0 0 0 0 0 0 0 0
0 0 0 0 0 0 0 0 0 0 0 0 0 0 0 0 0 0 0 0 0 0 0 0 0 0 0 0 0 0 0 0 0 0 0 0 0 0 0 0 0 0 0
0 0 0 0 0 0 0 0 0 0 0 0 0 0 0 0 0 0 0 0 0 0 0 0 0 0 0 0 0 0 0 0 0 0 0 0 0 0 0 0 0 0 0
0 0 0 0 0 0 0 0 0 0 0 0 0 0 0 0 0 0 0 0 0 0 0 0 0 0 0 0 0 0 0 0 0 0 0 0 0 0 0 0 0 0 0
0 0 0 0 0 0 0 0 0 0 0 0 0 0 0 0 0 0 0 0 0 0 0 0 0 0 0 0 0 0 0 0 0 0 0 0 0 0 0 0 0 0 0
0 0 0 0 0 0 0 0 0 0 0 0 0 0 0 0 0 0 0 0 0 0 0 0 0 0 0 0 0 0 0 0 0 0 0 0 0 0 0 0 0 0 0
0 0 0 0 0 0 0 0 0 0 0 0 0 0 0 0 0 0 0 0 0 0 0 0 0 0 0 0 0 0 0 0 0 0 0 0 0 0 0 0 0 0 0
Wind_Speed
10 11 10 10 11 11 12 13 13 13 13 14 14 14 15 16 16 17 17 17 17 18 18 19 19 19 20 19 19 19 19 19 19 20 20 20 20 20 20 18 16 13 20
13 12 10 10 11 12 12 12 13 13 14 14 14 14 14 15 16 16 17 16 17 17 18 18 18 19 19 18 18 17 16 15 14 15 18 18 19 20 20 19 17 13 19
14 12 10 10 11 11 12 12 12 13 14 13 13 13 14 15 15 16 16 16 16 16 17 17 18 18 18 17 16 16 15 14 12 13 14 9 13 19 20 19 19 19 18
14 11 11 10 11 11 11 12 12 13 13 13 13 13 14 14 15 15 16 15 16 16 16 17 17 17 17 16 15 15 14 14 13 14 10 9 9 18 19 19 19 18 18
12 12 12 11 11 11 11 12 12 13 13 13 13 13 13 14 14 15 15 15 15 15 16 16 16 16 16 15 14 14 14 12 13 13 9 9 8 16 17 17 17 17 16
13 12 11 11 11 11 11 12 12 13 13 13 13 13 13 14 14 14 14 15 15 15 15 15 15 15 15 14 13 13 14 13 12 9 8 8 7 14 15 15 15 15 15
12 11 10 10 10 10 11 11 12 12 13 13 12 12 12 13 13 13 14 14 14 14 14 14 14 14 13 13 12 12 14 12 9 8 8 6 8 14 14 13 13 13 13
12 11 10 10 10 9 9 10 11 12 12 12 12 12 12 12 12 12 13 13 13 13 13 13 13 13 12 11 11 11 12 10 9 9 7 6 10 12 12 12 12 11 11
12 11 8 8 8 9 9 9 10 11 11 11 11 11 11 11 11 11 11 12 12 12 12 12 12 12 11 10 9 9 10 10 6 6 8 5 9 11 11 10 10 10 10
9 9 9 8 7 7 7 9 10 11 10 11 11 10 10 10 9 9 9 10 11 11 11 11 10 10 9 8 7 7 9 7 6 6 4 5 8 9 9 8 8 8 8
8 8 8 8 8 7 7 9 9 9 10 10 8 9 8 5 5 5 9 9 10 10 10 9 8 7 6 5 3 5 6 2 5 4 4 5 6 6 6 6 6 6 5
8 7 7 7 7 7 7 6 5 5 6 5 5 5 3 3 5 7 8 9 9 8 8 6 4 2 2 2 1 3 2 3 3 3 3 4 4 4 4 4 3 3 3
8 7 6 6 6 6 5 5 3 3 4 4 6 4 3 4 4 5 3 4 4 5 3 3 2 1 1 1 0 1 2 2 1 2 3 4 2 2 2 2 1 1 1
9 8 6 6 6 6 5 4 4 3 3 3 5 5 3 2 3 3 3 4 3 2 2 2 1 1 1 1 2 2 2 2 1 1 3 5 3 4 4 4 4 4 4
10 10 8 7 6 6 5 4 4 4 4 4 4 4 4 3 3 3 2 2 3 2 3 2 1 1 0 1 1 1 2 3 2 1 2 6 6 7 8 8 7 7 7
10 11 10 8 7 6 5 4 4 4 4 4 4 5 5 3 3 3 3 2 2 2 2 2 1 2 2 1 2 2 3 3 3 3 2 5 9 9 11 11 11 11 11
10 10 11 10 8 7 6 5 3 4 4 4 4 5 5 4 4 4 3 3 2 2 2 1 1 1 1 2 3 4 3 4 4 4 4 3 5 10 13 15 15 15 15
10 10 11 9 10 9 7 5 3 3 4 4 4 4 5 5 4 4 3 3 3 3 2 2 2 2 2 3 3 3 3 4 5 5 5 5 4 5 9 16 17 18 18
10 10 11 11 11 10 8 6 5 4 3 3 4 4 5 6 5 4 3 3 4 3 3 3 2 2 3 3 3 3 4 4 5 5 7 7 6 6 5 9 14 16 19
9 10 11 11 11 10 8 6 5 5 4 4 4 4 6 5 6 5 4 4 4 3 3 4 4 3 3 3 3 4 5 6 5 6 8 7 7 8 7 7 7 9 16
8 8 11 12 12 10 8 8 7 6 5 4 4 6 6 6 6 5 4 4 5 5 5 5 4 4 4 2 1 4 5 7 9 8 7 7 8 8 7 8 6 6 7
7 8 8 10 12 11 9 8 6 6 5 6 5 6 7 7 7 6 6 5 5 5 5 5 4 3 3 3 3 2 4 4 5 8 6 6 7 5 7 8 8 8 7
6 7 7 9 10 11 10 6 5 4 4 4 5 5 7 7 7 7 7 6 5 5 5 6 6 6 4 3 4 4 3 4 4 3 5 6 6 5 6 6 8 9 9
4 4 5 6 7 9 10 8 8 6 6 6 4 4 5 7 7 7 6 6 6 5 6 6 6 5 5 4 4 5 6 3 3 5 3 4 5 6 7 6 7 9 9
1 2 2 3 4 6 8 8 8 6 4 3 3 4 4 4 5 5 5 5 5 5 5 5 5 6 5 5 4 3 5 4 5 6 8 5 4 5 6 7 7 7 8
2 1 2 3 3 3 5 6 6 6 5 3 3 2 2 2 2 2 2 2 3 3 4 4 4 5 5 6 5 4 4 4 4 6 9 8 8 6 6 6 7 7 8
Wind_Direction
116 118 122 116 112 109 106 101 95 93 89 86 84 83 82 81 78 76 74 73 72 71 71 70 70 70 69 69 69 69 69 70 72 72 68 67 66 65 64 63 64 62 66
118 121 122 117 113 109 107 104 99 97 93 90 87 86 85 84 81 79 77 75 74 74 73 72 71 71 70 70 69 67 66 64 67 76 72 66 67 68 67 66 67 68 68
115 121 120 113 111 108 107 106 103 100 97 95 92 90 88 86 84 82 80 78 77 76 75 74 72 72 71 69 67 63 57 50 54 73 71 65 66 68 68 66 66 67 67
121 128 120 116 113 108 107 108 106 103 100 98 95 92 89 87 85 83 81 80 78 77 77 76 74 73 71 69 65 58 47 38 53 69 65 61 62 68 67 65 63 63 65
118 114 118 118 115 110 108 110 108 106 102 102 97 93 90 87 85 84 82 81 79 78 77 77 76 73 70 67 61 50 36 31 62 68 67 62 59 69 69 67 65 64 63
114 115 120 120 118 113 110 110 110 109 105 104 99 93 91 90 87 86 85 82 80 78 78 77 76 73 70 64 56 43 32 37 64 64 63 61 59 68 69 69 68 67 66
116 118 124 118 117 114 113 113 113 112 109 105 101 96 94 92 90 89 87 85 82 80 80 79 77 74 69 63 53 38 30 39 71 67 64 58 62 69 68 68 68 67 67
118 120 123 114 114 111 109 110 112 113 112 108 104 101 98 96 92 91 89 88 86 83 82 81 79 76 70 62 50 33 23 30 71 79 72 60 67 69 68 68 69 68 68
121 125 130 129 119 108 104 106 110 109 109 108 104 99 92 89 88 86 87 89 88 85 84 81 80 76 71 62 46 25 12 13 65 76 79 63 67 68 68 68 68 69 68
129 135 141 144 137 130 114 107 110 109 106 105 104 103 99 96 94 92 86 88 90 88 86 82 80 78 74 65 41 12 355 355 65 78 78 73 70 69 70 70 69 69 69
139 140 145 148 146 143 136 125 118 114 114 115 113 126 137 135 122 97 89 91 92 91 90 88 86 87 87 78 37 350 337 20 68 82 81 86 79 76 77 76 75 73 72
152 150 148 150 146 145 140 143 145 139 147 151 143 172 194 111 101 103 93 96 98 99 100 98 101 136 182 158 207 303 327 15 67 99 109 112 97 92 93 90 85 82 79
160 154 155 153 146 141 136 158 153 148 168 159 157 180 128 106 119 123 122 125 127 143 129 136 183 247 47 60 50 340 4 2 37 101 135 146 152 165 161 161 165 171 173
167 164 164 157 152 148 151 157 147 145 158 153 152 160 141 141 152 152 156 164 163 166 139 167 185 66 40 25 4 2 349 333 4 85 158 179 208 232 232 227 228 229 229
173 168 171 166 163 159 159 161 157 155 162 159 150 166 164 155 165 152 150 148 165 150 158 189 179 157 217 271 297 308 306 311 313 301 167 200 220 242 251 249 245 243 242
176 169 169 172 172 166 168 171 163 163 162 157 156 174 184 168 163 157 156 160 173 156 163 173 197 185 220 227 254 258 269 281 277 278 241 215 223 236 248 254 254 252 249
176 170 169 174 177 174 178 184 173 169 161 162 164 178 181 181 169 167 168 173 186 167 157 170 240 226 247 240 251 252 251 262 269 268 262 240 227 230 238 247 252 254 254
173 174 171 170 178 180 181 186 187 184 169 170 167 175 182 191 186 172 173 182 178 162 167 191 211 219 239 239 247 253 242 245 251 253 254 248 239 234 233 240 247 251 254
175 173 171 170 179 184 182 184 189 189 186 178 173 176 186 192 195 181 182 184 170 167 182 199 212 211 235 240 244 254 254 250 247 246 247 247 243 241 237 240 242 247 252
176 172 172 173 180 181 180 184 187 192 194 190 189 190 188 190 193 189 188 187 172 178 198 204 216 221 234 247 266 265 258 253 249 245 246 246 243 241 238 241 242 245 248
176 175 175 176 180 180 183 186 190 195 193 196 199 197 195 192 192 192 193 192 186 198 208 206 207 223 235 210 263 284 269 246 241 242 239 241 245 242 238 239 240 243 249
183 186 184 181 180 183 189 189 191 189 192 197 197 202 201 198 195 195 198 200 199 205 213 211 202 206 227 180 192 267 300 296 254 239 234 236 243 244 243 242 240 242 244
192 195 194 190 184 183 181 179 177 187 191 192 198 201 204 201 198 196 202 204 203 203 216 215 205 206 227 212 197 214 253 271 306 282 240 235 237 240 243 244 243 243 243
191 194 196 195 188 182 177 179 180 189 198 198 192 194 195 197 198 199 201 204 207 207 217 220 211 210 217 230 213 220 235 262 282 296 283 259 246 243 244 244 244 244 242
120 175 191 192 186 177 173 175 183 196 201 193 182 179 184 186 188 193 198 204 212 215 220 222 217 215 216 227 223 213 229 243 236 263 284 280 268 249 245 245 246 247 244
71 113 158 167 164 153 156 163 176 187 186 180 176 157 145 128 136 169 193 202 216 222 225 228 227 226 227 233 237 226 220 230 232 243 274 285 282 269 249 243 245 245 245